Time,TemperatureF,DewpointF,PressureIn,WindDirection,WindDirectionDegrees,WindSpeedMPH,WindSpeedGustMPH,Humidity,HourlyPrecipIn,Conditions,Clouds,dailyrainin,SolarRadiationWatts/m^2,SoftwareType,DateUTC
2013-08-30 00:01:00,79.5,71.0,29.26,South,184,4.8,5.7,75,0.00,,,0.00,4,TxWx,2013-08-30 05:01:00,
2013-08-30 00:06:00,79.5,70.0,29.26,South,180,5.1,5.7,75,0.00,,,0.00,4,TxWx,2013-08-30 05:06:00,
2013-08-30 00:11:00,79.5,70.0,29.26,South,181,3.3,3.9,75,0.00,,,0.00,4,TxWx,2013-08-30 05:11:00,
2013-08-30 00:16:00,79.5,70.0,29.26,SW,221,4.2,4.5,75,0.00,,,0.00,4,TxWx,2013-08-30 05:16:00,
2013-08-30 00:21:00,79.3,71.0,29.26,South,172,9.0,10.5,76,0.00,,,0.00,4,TxWx,2013-08-30 05:21:00,
2013-08-30 00:26:00,79.1,71.0,29.27,SSW,194,8.4,8.4,76,0.00,,,0.00,4,TxWx,2013-08-30 05:26:00,
2013-08-30 00:31:00,79.1,71.0,29.27,SSE,166,6.3,6.3,76,0.00,,,0.00,4,TxWx,2013-08-30 05:31:00,
2013-08-30 00:36:00,79.1,71.0,29.26,South,191,7.5,7.5,76,0.00,,,0.00,4,TxWx,2013-08-30 05:36:00,
2013-08-30 00:41:00,79.3,71.0,29.27,WSW,254,7.5,7.8,76,0.00,,,0.00,4,TxWx,2013-08-30 05:41:00,
2013-08-30 00:46:00,79.3,71.0,29.26,SSW,204,6.6,6.6,76,0.00,,,0.00,4,TxWx,2013-08-30 05:46:00,
2013-08-30 00:51:00,79.2,71.0,29.26,SSW,193,8.4,9.0,76,0.00,,,0.00,4,TxWx,2013-08-30 05:51:00,
2013-08-30 00:56:00,79.3,71.0,29.26,SW,219,6.3,9.0,76,0.00,,,0.00,4,TxWx,2013-08-30 05:56:00,
2013-08-30 01:01:00,79.4,70.0,29.27,SW,226,4.8,4.8,75,0.00,,,0.00,4,TxWx,2013-08-30 06:01:00,
2013-08-30 01:06:00,79.7,71.0,29.27,SW,227,4.2,4.5,74,0.00,,,0.00,4,TxWx,2013-08-30 06:06:00,
2013-08-30 01:11:00,79.5,70.0,29.26,SSW,205,6.3,6.3,75,0.00,,,0.00,4,TxWx,2013-08-30 06:11:00,
2013-08-30 01:16:00,79.5,70.0,29.26,SSW,195,7.2,10.2,75,0.00,,,0.00,4,TxWx,2013-08-30 06:16:00,
2013-08-30 01:21:00,79.7,71.0,29.26,South,188,5.7,5.7,74,0.00,,,0.00,4,TxWx,2013-08-30 06:21:00,
2013-08-30 01:26:00,79.7,71.0,29.26,South,184,6.3,8.1,73,0.00,,,0.00,4,TxWx,2013-08-30 06:26:00,
2013-08-30 01:31:00,79.8,71.0,29.26,SW,216,9.3,10.2,73,0.00,,,0.00,4,TxWx,2013-08-30 06:31:00,
2013-08-30 01:36:00,80.1,70.0,29.26,SSW,204,9.0,10.5,72,0.00,,,0.00,4,TxWx,2013-08-30 06:36:00,
2013-08-30 01:41:00,80.3,70.0,29.26,South,189,2.7,3.9,71,0.00,,,0.00,4,TxWx,2013-08-30 06:41:00,
2013-08-30 01:46:00,80.4,70.0,29.26,SW,236,3.9,4.2,71,0.00,,,0.00,4,TxWx,2013-08-30 06:46:00,
2013-08-30 01:51:00,80.5,70.0,29.25,SSW,203,9.0,10.5,71,0.00,,,0.00,4,TxWx,2013-08-30 06:51:00,
2013-08-30 01:56:00,80.5,71.0,29.25,WSW,242,4.2,4.2,71,0.00,,,0.00,4,TxWx,2013-08-30 06:56:00,
2013-08-30 02:01:00,80.6,71.0,29.25,SW,232,4.2,4.2,71,0.00,,,0.00,4,TxWx,2013-08-30 07:01:00,
2013-08-30 02:06:00,80.6,71.0,29.25,SW,223,5.1,5.1,71,0.00,,,0.00,4,TxWx,2013-08-30 07:06:00,
2013-08-30 02:11:00,80.5,70.0,29.25,SSW,192,6.9,6.9,72,0.00,,,0.00,4,TxWx,2013-08-30 07:11:00,
2013-08-30 02:16:00,80.4,70.0,29.25,SSW,213,5.1,5.4,72,0.00,,,0.00,4,TxWx,2013-08-30 07:16:00,
2013-08-30 02:21:00,80.3,70.0,29.25,WSW,250,7.2,7.2,73,0.00,,,0.00,4,TxWx,2013-08-30 07:21:00,
2013-08-30 02:26:00,80.2,71.0,29.25,WSW,248,6.0,6.0,73,0.00,,,0.00,4,TxWx,2013-08-30 07:26:00,
2013-08-30 02:31:00,80.2,71.0,29.25,SW,226,9.6,9.6,73,0.00,,,0.00,4,TxWx,2013-08-30 07:31:00,
2013-08-30 02:36:00,80.2,71.0,29.25,SSW,206,6.9,8.7,74,0.00,,,0.00,4,TxWx,2013-08-30 07:36:00,
2013-08-30 02:41:00,80.1,71.0,29.25,WSW,252,6.9,7.2,74,0.00,,,0.00,4,TxWx,2013-08-30 07:41:00,
2013-08-30 02:46:00,80.0,71.0,29.24,SW,229,6.9,7.2,74,0.00,,,0.00,4,TxWx,2013-08-30 07:46:00,
2013-08-30 02:51:00,80.0,71.0,29.24,SW,226,7.8,7.8,75,0.00,,,0.00,4,TxWx,2013-08-30 07:51:00,
2013-08-30 02:56:00,80.0,71.0,29.24,WSW,238,8.1,8.1,75,0.00,,,0.00,4,TxWx,2013-08-30 07:56:00,
2013-08-30 03:01:00,80.0,71.0,29.24,WSW,250,7.2,7.5,75,0.00,,,0.00,4,TxWx,2013-08-30 08:01:00,
2013-08-30 03:06:00,80.0,71.0,29.24,West,262,6.9,7.8,75,0.00,,,0.00,4,TxWx,2013-08-30 08:06:00,
2013-08-30 03:11:00,79.8,72.0,29.24,WSW,251,8.4,8.4,76,0.00,,,0.00,4,TxWx,2013-08-30 08:11:00,
2013-08-30 03:16:00,79.7,72.0,29.24,West,260,5.4,5.4,76,0.00,,,0.00,4,TxWx,2013-08-30 08:16:00,
2013-08-30 03:21:00,79.6,72.0,29.24,SW,220,11.4,15.9,76,0.00,,,0.00,4,TxWx,2013-08-30 08:21:00,
2013-08-30 03:26:00,79.5,71.0,29.24,WSW,237,5.1,5.1,77,0.00,,,0.00,4,TxWx,2013-08-30 08:26:00,
2013-08-30 03:31:00,79.4,71.0,29.24,WSW,245,8.1,9.9,77,0.00,,,0.00,4,TxWx,2013-08-30 08:31:00,
2013-08-30 03:36:00,79.4,71.0,29.24,West,261,8.7,9.3,77,0.00,,,0.00,4,TxWx,2013-08-30 08:36:00,
2013-08-30 03:41:00,79.2,71.0,29.24,West,261,9.0,9.0,78,0.00,,,0.00,4,TxWx,2013-08-30 08:41:00,
2013-08-30 03:46:00,79.0,72.0,29.24,West,260,10.2,10.2,78,0.00,,,0.00,4,TxWx,2013-08-30 08:46:00,
2013-08-30 03:51:00,78.8,72.0,29.25,WSW,251,7.2,7.5,79,0.00,,,0.00,4,TxWx,2013-08-30 08:51:00,
2013-08-30 03:56:00,78.6,72.0,29.25,WSW,257,7.5,7.5,80,0.00,,,0.00,4,TxWx,2013-08-30 08:56:00,
2013-08-30 04:01:00,78.3,71.0,29.25,West,265,7.8,8.7,81,0.00,,,0.00,4,TxWx,2013-08-30 09:01:00,
2013-08-30 04:06:00,78.1,72.0,29.25,WSW,257,6.0,6.9,81,0.00,,,0.00,4,TxWx,2013-08-30 09:06:00,
2013-08-30 04:11:00,77.9,72.0,29.25,West,261,9.0,9.0,82,0.00,,,0.00,4,TxWx,2013-08-30 09:11:00,
2013-08-30 04:16:00,77.9,72.0,29.25,WSW,242,9.3,10.2,82,0.00,,,0.00,4,TxWx,2013-08-30 09:16:00,
2013-08-30 04:21:00,77.8,72.0,29.25,West,264,8.4,8.4,83,0.00,,,0.00,4,TxWx,2013-08-30 09:21:00,
2013-08-30 04:26:00,77.7,72.0,29.25,West,266,7.5,8.4,83,0.00,,,0.00,4,TxWx,2013-08-30 09:26:00,
2013-08-30 04:31:00,77.6,72.0,29.25,WSW,254,9.9,9.9,83,0.00,,,0.00,4,TxWx,2013-08-30 09:31:00,
2013-08-30 04:36:00,77.4,71.0,29.25,West,265,8.4,8.7,83,0.00,,,0.00,4,TxWx,2013-08-30 09:36:00,
2013-08-30 04:41:00,77.2,72.0,29.25,WNW,289,8.1,9.3,84,0.00,,,0.00,4,TxWx,2013-08-30 09:41:00,
2013-08-30 04:46:00,77.0,72.0,29.25,WNW,290,4.8,4.8,84,0.00,,,0.00,4,TxWx,2013-08-30 09:46:00,
2013-08-30 04:51:00,76.8,72.0,29.26,West,261,4.5,4.8,85,0.00,,,0.00,4,TxWx,2013-08-30 09:51:00,
2013-08-30 04:56:00,76.6,72.0,29.26,WSW,257,8.4,8.4,85,0.00,,,0.00,4,TxWx,2013-08-30 09:56:00,
2013-08-30 05:01:00,76.4,71.0,29.26,West,263,7.2,7.2,86,0.00,,,0.00,4,TxWx,2013-08-30 10:01:00,
2013-08-30 05:06:00,76.2,71.0,29.26,West,260,6.6,7.2,86,0.00,,,0.00,4,TxWx,2013-08-30 10:06:00,
2013-08-30 05:11:00,76.1,71.0,29.26,WSW,258,8.7,8.7,86,0.00,,,0.00,4,TxWx,2013-08-30 10:11:00,
2013-08-30 05:16:00,75.9,72.0,29.26,WSW,255,7.5,8.4,87,0.00,,,0.00,4,TxWx,2013-08-30 10:16:00,
2013-08-30 05:21:00,75.8,72.0,29.26,West,269,6.9,7.2,87,0.00,,,0.00,4,TxWx,2013-08-30 10:21:00,
2013-08-30 05:26:00,75.6,72.0,29.26,WNW,291,6.0,6.9,88,0.00,,,0.00,4,TxWx,2013-08-30 10:26:00,
2013-08-30 05:31:00,75.4,71.0,29.26,WSW,258,7.5,7.5,88,0.00,,,0.00,4,TxWx,2013-08-30 10:31:00,
2013-08-30 05:36:00,75.3,71.0,29.26,West,270,6.9,7.2,89,0.00,,,0.00,4,TxWx,2013-08-30 10:36:00,
2013-08-30 05:41:00,75.1,71.0,29.26,West,280,6.3,6.3,89,0.00,,,0.00,4,TxWx,2013-08-30 10:41:00,
2013-08-30 05:46:00,75.0,72.0,29.26,West,269,5.4,6.3,89,0.00,,,0.00,4,TxWx,2013-08-30 10:46:00,
2013-08-30 05:51:00,74.9,72.0,29.26,WSW,253,3.3,4.2,89,0.00,,,0.00,4,TxWx,2013-08-30 10:51:00,
2013-08-30 05:56:00,74.8,72.0,29.26,West,267,4.5,4.8,90,0.00,,,0.00,4,TxWx,2013-08-30 10:56:00,
2013-08-30 06:01:00,74.7,72.0,29.26,WSW,258,3.6,3.6,90,0.00,,,0.00,4,TxWx,2013-08-30 11:01:00,
2013-08-30 06:06:00,74.5,72.0,29.26,WNW,295,8.4,8.4,90,0.00,,,0.00,4,TxWx,2013-08-30 11:06:00,
2013-08-30 06:11:00,74.4,71.0,29.27,West,269,4.8,5.4,90,0.00,,,0.00,4,TxWx,2013-08-30 11:11:00,
2013-08-30 06:16:00,74.3,71.0,29.27,NW,305,3.6,3.6,91,0.00,,,0.00,5,TxWx,2013-08-30 11:16:00,
2013-08-30 06:21:00,74.2,71.0,29.27,West,266,5.1,5.1,91,0.00,,,0.00,5,TxWx,2013-08-30 11:21:00,
2013-08-30 06:26:00,74.1,71.0,29.27,NNW,332,3.3,3.3,91,0.00,,,0.00,7,TxWx,2013-08-30 11:26:00,
2013-08-30 06:31:00,74.1,71.0,29.27,NW,309,5.4,5.4,90,0.00,,,0.00,8,TxWx,2013-08-30 11:31:00,
2013-08-30 06:36:00,74.0,71.0,29.27,NW,311,1.8,2.1,90,0.00,,,0.00,11,TxWx,2013-08-30 11:36:00,
2013-08-30 06:41:00,73.9,71.0,29.28,North,355,4.5,4.8,90,0.00,,,0.00,19,TxWx,2013-08-30 11:41:00,
2013-08-30 06:46:00,73.8,71.0,29.28,NNW,335,6.6,6.6,90,0.00,,,0.00,36,TxWx,2013-08-30 11:46:00,
2013-08-30 06:51:00,73.8,71.0,29.28,NNW,337,10.2,10.2,90,0.00,,,0.00,57,TxWx,2013-08-30 11:51:00,
2013-08-30 06:56:00,73.8,71.0,29.28,NNW,329,9.6,9.9,90,0.00,,,0.00,76,TxWx,2013-08-30 11:56:00,
2013-08-30 07:01:00,73.7,71.0,29.28,NNW,345,6.0,6.0,90,0.00,,,0.00,98,TxWx,2013-08-30 12:01:00,
2013-08-30 07:06:00,73.7,71.0,29.28,NNW,338,10.8,10.8,90,0.00,,,0.00,119,TxWx,2013-08-30 12:06:00,
2013-08-30 07:11:00,73.7,71.0,29.28,NNW,339,12.6,12.6,90,0.00,,,0.00,139,TxWx,2013-08-30 12:11:00,
2013-08-30 07:16:00,73.8,71.0,29.28,North,351,9.0,10.8,90,0.00,,,0.00,154,TxWx,2013-08-30 12:16:00,
2013-08-30 07:21:00,73.7,71.0,29.29,NNW,332,7.5,8.1,89,0.00,,,0.00,169,TxWx,2013-08-30 12:21:00,
2013-08-30 07:26:00,73.8,71.0,29.29,NNW,346,6.3,6.3,89,0.00,,,0.00,184,TxWx,2013-08-30 12:26:00,
2013-08-30 07:31:00,73.8,71.0,29.29,NNE,21,11.1,12.0,89,0.00,,,0.00,207,TxWx,2013-08-30 12:31:00,
2013-08-30 07:36:00,73.8,70.0,29.29,NNW,327,9.6,10.5,89,0.00,,,0.00,224,TxWx,2013-08-30 12:36:00,
2013-08-30 07:41:00,73.9,70.0,29.30,North,6,6.9,8.4,88,0.00,,,0.00,255,TxWx,2013-08-30 12:41:00,
2013-08-30 07:46:00,74.0,70.0,29.30,NNE,15,9.0,9.0,88,0.00,,,0.00,312,TxWx,2013-08-30 12:46:00,
2013-08-30 07:51:00,74.1,70.0,29.31,North,352,11.7,11.7,87,0.00,,,0.00,226,TxWx,2013-08-30 12:51:00,
2013-08-30 07:56:00,73.6,70.0,29.31,North,353,15.0,15.3,86,0.00,,,0.00,305,TxWx,2013-08-30 12:56:00,
2013-08-30 08:01:00,73.4,69.0,29.31,NNE,21,8.1,8.1,87,0.00,,,0.00,126,TxWx,2013-08-30 13:01:00,
2013-08-30 08:06:00,73.2,69.0,29.31,NNW,346,13.8,14.1,87,0.00,,,0.00,230,TxWx,2013-08-30 13:06:00,
2013-08-30 08:11:00,73.4,69.0,29.31,NE,47,2.7,2.7,87,0.00,,,0.00,180,TxWx,2013-08-30 13:11:00,
2013-08-30 08:16:00,73.4,69.0,29.31,North,3,13.2,13.2,87,0.00,,,0.00,136,TxWx,2013-08-30 13:16:00,
2013-08-30 08:21:00,72.8,68.0,29.32,East,83,15.3,15.3,86,0.00,,,0.00,116,TxWx,2013-08-30 13:21:00,
2013-08-30 08:26:00,72.4,68.0,29.32,NE,36,9.3,9.3,86,0.00,,,0.00,113,TxWx,2013-08-30 13:26:00,
2013-08-30 08:31:00,71.9,68.0,29.32,North,356,11.7,14.7,87,0.00,,,0.00,132,TxWx,2013-08-30 13:31:00,
2013-08-30 08:36:00,71.6,68.0,29.32,NNW,336,7.5,7.5,88,0.00,,,0.00,109,TxWx,2013-08-30 13:36:00,
2013-08-30 08:41:00,71.6,68.0,29.33,NNE,18,6.3,6.6,88,0.00,,,0.00,93,TxWx,2013-08-30 13:41:00,
2013-08-30 08:46:00,71.5,68.0,29.32,North,359,9.9,10.5,88,0.00,,,0.00,90,TxWx,2013-08-30 13:46:00,
2013-08-30 08:51:00,71.5,68.0,29.33,North,4,9.6,10.5,89,0.00,,,0.00,81,TxWx,2013-08-30 13:51:00,
2013-08-30 08:56:00,71.9,68.0,29.33,NE,41,4.2,4.8,89,0.00,,,0.00,241,TxWx,2013-08-30 13:56:00,
2013-08-30 09:01:00,72.2,67.0,29.33,North,11,13.8,13.8,86,0.00,,,0.00,163,TxWx,2013-08-30 14:01:00,
2013-08-30 09:06:00,72.0,67.0,29.33,North,5,8.1,9.0,85,0.00,,,0.00,108,TxWx,2013-08-30 14:06:00,
2013-08-30 09:11:00,71.7,68.0,29.33,North,9,13.8,13.8,86,0.00,,,0.00,119,TxWx,2013-08-30 14:11:00,
2013-08-30 09:16:00,71.7,68.0,29.33,NNE,13,4.5,4.5,86,0.00,,,0.00,118,TxWx,2013-08-30 14:16:00,
2013-08-30 09:21:00,71.6,68.0,29.33,North,10,9.0,9.6,87,0.00,,,0.00,116,TxWx,2013-08-30 14:21:00,
2013-08-30 09:26:00,71.4,67.0,29.33,NE,39,9.9,11.7,87,0.00,,,0.00,155,TxWx,2013-08-30 14:26:00,
2013-08-30 09:31:00,71.4,66.0,29.33,North,353,10.2,14.4,86,0.00,,,0.00,159,TxWx,2013-08-30 14:31:00,
2013-08-30 09:36:00,71.5,67.0,29.33,NE,45,9.9,11.1,85,0.00,,,0.00,159,TxWx,2013-08-30 14:36:00,
2013-08-30 09:41:00,71.4,66.0,29.34,NNE,19,15.9,17.1,85,0.00,,,0.00,149,TxWx,2013-08-30 14:41:00,
2013-08-30 09:46:00,71.4,66.0,29.34,NNE,23,12.6,16.2,85,0.00,,,0.00,131,TxWx,2013-08-30 14:46:00,
2013-08-30 09:51:00,71.1,66.0,29.34,NNE,16,13.8,13.8,86,0.00,,,0.00,144,TxWx,2013-08-30 14:51:00,
2013-08-30 09:56:00,70.9,66.0,29.34,NNE,15,12.0,13.5,86,0.00,,,0.00,220,TxWx,2013-08-30 14:56:00,
2013-08-30 10:01:00,71.3,66.0,29.34,North,4,6.9,7.2,85,0.00,,,0.00,259,TxWx,2013-08-30 15:01:00,
2013-08-30 10:06:00,71.7,67.0,29.34,NNW,346,11.1,11.1,83,0.00,,,0.00,293,TxWx,2013-08-30 15:06:00,
2013-08-30 10:11:00,71.8,66.0,29.34,NW,321,10.8,10.8,81,0.00,,,0.00,295,TxWx,2013-08-30 15:11:00,
2013-08-30 10:16:00,72.0,66.0,29.35,NNE,13,10.5,12.6,81,0.00,,,0.00,281,TxWx,2013-08-30 15:16:00,
2013-08-30 10:21:00,71.9,65.0,29.34,NNE,17,15.0,15.0,80,0.00,,,0.00,332,TxWx,2013-08-30 15:21:00,
2013-08-30 10:26:00,72.0,65.0,29.34,NW,307,6.9,8.7,79,0.00,,,0.00,346,TxWx,2013-08-30 15:26:00,
2013-08-30 10:31:00,71.9,65.0,29.34,North,7,14.1,15.3,78,0.00,,,0.00,408,TxWx,2013-08-30 15:31:00,
2013-08-30 10:36:00,71.6,64.0,29.34,NNW,343,11.4,13.2,77,0.00,,,0.00,425,TxWx,2013-08-30 15:36:00,
2013-08-30 10:41:00,71.5,63.0,29.35,North,10,11.7,15.3,77,0.00,,,0.00,331,TxWx,2013-08-30 15:41:00,
2013-08-30 10:46:00,71.8,64.0,29.35,NNW,339,12.6,12.6,77,0.00,,,0.00,188,TxWx,2013-08-30 15:46:00,
2013-08-30 10:51:00,71.1,63.0,29.35,NNE,14,9.3,9.3,77,0.00,,,0.00,332,TxWx,2013-08-30 15:51:00,
2013-08-30 10:56:00,71.5,64.0,29.35,North,359,10.8,11.4,78,0.00,,,0.00,811,TxWx,2013-08-30 15:56:00,
2013-08-30 11:01:00,71.3,63.0,29.35,NNE,31,9.6,12.0,77,0.00,,,0.00,546,TxWx,2013-08-30 16:01:00,
2013-08-30 11:06:00,71.4,63.0,29.35,North,9,16.2,17.7,77,0.00,,,0.00,639,TxWx,2013-08-30 16:06:00,
2013-08-30 11:11:00,71.2,63.0,29.35,NNW,332,16.8,16.8,77,0.00,,,0.00,343,TxWx,2013-08-30 16:11:00,
2013-08-30 11:16:00,71.5,64.0,29.35,North,358,7.8,9.3,77,0.00,,,0.00,941,TxWx,2013-08-30 16:16:00,
2013-08-30 11:21:00,71.3,63.0,29.35,North,352,15.6,15.6,76,0.00,,,0.00,372,TxWx,2013-08-30 16:21:00,
2013-08-30 11:26:00,71.4,63.0,29.35,North,7,13.8,14.1,77,0.00,,,0.00,282,TxWx,2013-08-30 16:26:00,
2013-08-30 11:31:00,71.8,64.0,29.35,NE,46,10.8,10.8,77,0.00,,,0.00,832,TxWx,2013-08-30 16:31:00,
2013-08-30 11:36:00,72.3,64.0,29.35,NNW,329,10.2,10.2,75,0.00,,,0.00,522,TxWx,2013-08-30 16:36:00,
2013-08-30 11:41:00,71.8,64.0,29.35,North,2,13.2,13.2,75,0.00,,,0.00,484,TxWx,2013-08-30 16:41:00,
2013-08-30 11:46:00,72.0,64.0,29.35,WNW,303,6.9,9.3,76,0.00,,,0.00,415,TxWx,2013-08-30 16:46:00,
2013-08-30 11:51:00,71.9,64.0,29.35,NNE,29,7.8,10.2,76,0.00,,,0.00,468,TxWx,2013-08-30 16:51:00,
2013-08-30 11:56:00,72.0,64.0,29.35,NNE,30,7.8,7.8,76,0.00,,,0.00,487,TxWx,2013-08-30 16:56:00,
2013-08-30 12:01:00,71.7,63.0,29.35,NNW,344,12.6,13.8,75,0.00,,,0.00,769,TxWx,2013-08-30 17:01:00,
2013-08-30 12:06:00,72.2,64.0,29.35,NE,53,6.6,7.8,75,0.00,,,0.00,624,TxWx,2013-08-30 17:06:00,
2013-08-30 12:11:00,72.9,64.0,29.35,NNE,22,16.5,16.5,73,0.00,,,0.00,867,TxWx,2013-08-30 17:11:00,
2013-08-30 12:16:00,72.7,64.0,29.35,NNE,24,14.7,15.0,73,0.00,,,0.00,863,TxWx,2013-08-30 17:16:00,
2013-08-30 12:21:00,72.6,64.0,29.35,NNE,17,10.2,10.5,73,0.00,,,0.00,486,TxWx,2013-08-30 17:21:00,
2013-08-30 12:26:00,73.3,64.0,29.34,NNE,16,10.2,10.8,74,0.00,,,0.00,467,TxWx,2013-08-30 17:26:00,
2013-08-30 12:31:00,73.0,64.0,29.34,NNE,20,11.7,11.7,73,0.00,,,0.00,791,TxWx,2013-08-30 17:31:00,
2013-08-30 12:36:00,73.9,65.0,29.34,NNE,19,8.4,11.1,73,0.00,,,0.00,863,TxWx,2013-08-30 17:36:00,
2013-08-30 12:41:00,73.2,63.0,29.34,NNE,31,15.6,15.6,71,0.00,,,0.00,486,TxWx,2013-08-30 17:41:00,
2013-08-30 12:46:00,73.4,63.0,29.34,NNE,13,10.5,10.5,72,0.00,,,0.00,879,TxWx,2013-08-30 17:46:00,
2013-08-30 12:51:00,73.8,64.0,29.34,NNE,16,17.4,18.6,71,0.00,,,0.00,338,TxWx,2013-08-30 17:51:00,
2013-08-30 12:56:00,74.1,64.0,29.34,NNE,13,9.0,9.9,71,0.00,,,0.00,783,TxWx,2013-08-30 17:56:00,
2013-08-30 13:01:00,74.3,64.0,29.34,NE,35,7.8,8.4,70,0.00,,,0.00,778,TxWx,2013-08-30 18:01:00,
2013-08-30 13:06:00,75.0,65.0,29.34,East,99,8.4,11.1,70,0.00,,,0.00,774,TxWx,2013-08-30 18:06:00,
2013-08-30 13:11:00,75.0,64.0,29.34,ENE,66,10.2,10.2,68,0.00,,,0.00,543,TxWx,2013-08-30 18:11:00,
2013-08-30 13:16:00,75.6,65.0,29.34,North,2,4.5,4.5,68,0.00,,,0.00,774,TxWx,2013-08-30 18:16:00,
2013-08-30 13:21:00,76.0,64.0,29.34,NE,51,9.3,9.9,68,0.00,,,0.00,771,TxWx,2013-08-30 18:21:00,
2013-08-30 13:26:00,75.6,64.0,29.33,NE,42,15.3,16.5,68,0.00,,,0.00,788,TxWx,2013-08-30 18:26:00,
2013-08-30 13:31:00,75.6,64.0,29.33,WNW,302,3.9,4.2,68,0.00,,,0.00,765,TxWx,2013-08-30 18:31:00,
2013-08-30 13:36:00,76.0,64.0,29.33,NE,39,4.2,5.4,67,0.00,,,0.00,757,TxWx,2013-08-30 18:36:00,
2013-08-30 13:41:00,75.7,64.0,29.33,North,1,9.9,10.5,66,0.00,,,0.00,746,TxWx,2013-08-30 18:41:00,
2013-08-30 13:46:00,76.1,64.0,29.33,NNW,336,10.5,11.1,67,0.00,,,0.00,749,TxWx,2013-08-30 18:46:00,
2013-08-30 13:51:00,76.0,64.0,29.33,NNE,22,8.4,9.9,67,0.00,,,0.00,741,TxWx,2013-08-30 18:51:00,
2013-08-30 13:56:00,77.1,65.0,29.33,NNW,347,8.1,8.1,66,0.00,,,0.00,738,TxWx,2013-08-30 18:56:00,
2013-08-30 14:01:00,77.2,64.0,29.33,NNE,22,7.2,7.5,64,0.00,,,0.00,732,TxWx,2013-08-30 19:01:00,
2013-08-30 14:06:00,77.5,65.0,29.33,East,94,9.9,9.9,64,0.00,,,0.00,734,TxWx,2013-08-30 19:06:00,
2013-08-30 14:11:00,77.0,64.0,29.33,NNW,348,11.4,11.4,64,0.00,,,0.00,724,TxWx,2013-08-30 19:11:00,
2013-08-30 14:16:00,77.3,64.0,29.33,NNW,343,5.7,6.0,64,0.00,,,0.00,720,TxWx,2013-08-30 19:16:00,
2013-08-30 14:21:00,77.8,65.0,29.33,ENE,68,7.2,7.2,64,0.00,,,0.00,720,TxWx,2013-08-30 19:21:00,
2013-08-30 14:26:00,77.9,65.0,29.33,NE,42,2.7,2.7,64,0.00,,,0.00,718,TxWx,2013-08-30 19:26:00,
2013-08-30 14:31:00,78.3,65.0,29.33,NNE,27,8.1,8.1,64,0.00,,,0.00,735,TxWx,2013-08-30 19:31:00,
2013-08-30 14:36:00,78.4,64.0,29.33,NNE,26,4.8,5.1,62,0.00,,,0.00,731,TxWx,2013-08-30 19:36:00,
2013-08-30 14:41:00,78.5,65.0,29.33,NE,54,10.2,10.8,63,0.00,,,0.00,531,TxWx,2013-08-30 19:41:00,
2013-08-30 14:46:00,78.0,64.0,29.32,North,355,5.7,6.3,62,0.00,,,0.00,754,TxWx,2013-08-30 19:46:00,
2013-08-30 14:51:00,78.6,65.0,29.32,ESE,104,6.6,10.8,63,0.00,,,0.00,713,TxWx,2013-08-30 19:51:00,
2013-08-30 14:56:00,78.2,64.0,29.32,NNE,13,6.6,6.9,62,0.00,,,0.00,729,TxWx,2013-08-30 19:56:00,
2013-08-30 15:01:00,78.5,63.0,29.32,NNE,29,12.3,12.9,61,0.00,,,0.00,759,TxWx,2013-08-30 20:01:00,
2013-08-30 15:06:00,78.5,64.0,29.32,ENE,60,4.5,6.0,62,0.00,,,0.00,684,TxWx,2013-08-30 20:06:00,
2013-08-30 15:11:00,78.8,65.0,29.32,NE,43,8.1,9.3,62,0.00,,,0.00,695,TxWx,2013-08-30 20:11:00,
2013-08-30 15:16:00,79.0,64.0,29.32,NE,35,13.2,13.2,61,0.00,,,0.00,666,TxWx,2013-08-30 20:16:00,
2013-08-30 15:21:00,78.8,64.0,29.32,NE,36,11.7,12.9,61,0.00,,,0.00,648,TxWx,2013-08-30 20:21:00,
2013-08-30 15:26:00,78.5,63.0,29.32,NNE,13,10.5,11.1,61,0.00,,,0.00,638,TxWx,2013-08-30 20:26:00,
2013-08-30 15:31:00,79.2,65.0,29.32,NNE,22,6.9,6.9,62,0.00,,,0.00,629,TxWx,2013-08-30 20:31:00,
2013-08-30 15:36:00,79.7,65.0,29.31,East,89,7.5,7.8,60,0.00,,,0.00,623,TxWx,2013-08-30 20:36:00,
2013-08-30 15:41:00,79.5,65.0,29.31,ENE,67,6.3,6.3,60,0.00,,,0.00,652,TxWx,2013-08-30 20:41:00,
2013-08-30 15:46:00,79.2,64.0,29.31,NE,48,5.7,5.7,60,0.00,,,0.00,606,TxWx,2013-08-30 20:46:00,
2013-08-30 15:51:00,79.5,64.0,29.31,East,94,12.0,12.0,60,0.00,,,0.00,602,TxWx,2013-08-30 20:51:00,
2013-08-30 15:56:00,79.7,65.0,29.31,NE,38,8.7,9.6,60,0.00,,,0.00,589,TxWx,2013-08-30 20:56:00,
2013-08-30 16:01:00,79.9,64.0,29.31,East,79,7.5,7.5,59,0.00,,,0.00,585,TxWx,2013-08-30 21:01:00,
2013-08-30 16:06:00,79.8,64.0,29.31,NE,44,5.1,5.1,59,0.00,,,0.00,568,TxWx,2013-08-30 21:06:00,
2013-08-30 16:11:00,80.1,65.0,29.30,NNE,17,5.7,5.7,60,0.00,,,0.00,551,TxWx,2013-08-30 21:11:00,
2013-08-30 16:16:00,80.0,64.0,29.30,East,83,6.6,6.9,59,0.00,,,0.00,546,TxWx,2013-08-30 21:16:00,
2013-08-30 16:21:00,80.2,65.0,29.30,NE,48,3.3,3.3,60,0.00,,,0.00,540,TxWx,2013-08-30 21:21:00,
2013-08-30 16:26:00,80.6,65.0,29.30,East,83,8.4,9.3,58,0.00,,,0.00,529,TxWx,2013-08-30 21:26:00,
2013-08-30 16:31:00,80.3,64.0,29.30,NE,45,7.2,7.2,59,0.00,,,0.00,516,TxWx,2013-08-30 21:31:00,
2013-08-30 16:36:00,80.0,64.0,29.30,NNE,16,9.6,11.1,59,0.00,,,0.00,511,TxWx,2013-08-30 21:36:00,
2013-08-30 16:41:00,80.0,64.0,29.29,North,356,6.0,6.6,58,0.00,,,0.00,494,TxWx,2013-08-30 21:41:00,
2013-08-30 16:46:00,80.6,65.0,29.29,ESE,102,6.3,8.1,58,0.00,,,0.00,487,TxWx,2013-08-30 21:46:00,
2013-08-30 16:51:00,80.7,65.0,29.29,NE,36,6.0,6.6,59,0.00,,,0.00,477,TxWx,2013-08-30 21:51:00,
2013-08-30 16:56:00,80.9,64.0,29.29,ENE,76,9.9,9.9,57,0.00,,,0.00,461,TxWx,2013-08-30 21:56:00,
2013-08-30 17:01:00,80.9,64.0,29.29,NE,36,8.7,8.7,57,0.00,,,0.00,452,TxWx,2013-08-30 22:01:00,
2013-08-30 17:06:00,80.6,64.0,29.29,NNE,32,4.8,4.8,57,0.00,,,0.00,443,TxWx,2013-08-30 22:06:00,
2013-08-30 17:11:00,80.4,63.0,29.29,NNE,23,4.5,4.8,57,0.00,,,0.00,432,TxWx,2013-08-30 22:11:00,
2013-08-30 17:16:00,80.7,65.0,29.28,NE,56,4.5,4.5,58,0.00,,,0.00,422,TxWx,2013-08-30 22:16:00,
2013-08-30 17:21:00,80.7,65.0,29.28,NNE,25,3.9,4.2,58,0.00,,,0.00,410,TxWx,2013-08-30 22:21:00,
2013-08-30 17:26:00,81.0,64.0,29.29,NNE,19,6.9,7.2,57,0.00,,,0.00,399,TxWx,2013-08-30 22:26:00,
2013-08-30 17:31:00,80.7,64.0,29.28,NE,52,8.4,9.3,57,0.00,,,0.00,388,TxWx,2013-08-30 22:31:00,
2013-08-30 17:36:00,80.8,64.0,29.28,NE,53,10.2,10.2,56,0.00,,,0.00,379,TxWx,2013-08-30 22:36:00,
2013-08-30 17:41:00,81.0,65.0,29.28,East,88,2.7,3.0,58,0.00,,,0.00,366,TxWx,2013-08-30 22:41:00,
2013-08-30 17:46:00,81.3,64.0,29.28,NNE,25,6.6,6.6,57,0.00,,,0.00,354,TxWx,2013-08-30 22:46:00,
2013-08-30 17:51:00,81.6,65.0,29.28,NNW,334,5.4,5.4,57,0.00,,,0.00,344,TxWx,2013-08-30 22:51:00,
2013-08-30 17:56:00,81.1,64.0,29.28,NNE,29,9.0,9.3,56,0.00,,,0.00,333,TxWx,2013-08-30 22:56:00,
2013-08-30 18:01:00,81.2,64.0,29.28,NNE,22,6.3,6.3,56,0.00,,,0.00,320,TxWx,2013-08-30 23:01:00,
2013-08-30 18:06:00,81.4,64.0,29.28,ENE,66,9.3,9.3,57,0.00,,,0.00,307,TxWx,2013-08-30 23:06:00,
2013-08-30 18:11:00,81.2,64.0,29.28,North,7,6.6,6.9,56,0.00,,,0.00,298,TxWx,2013-08-30 23:11:00,
2013-08-30 18:16:00,81.3,64.0,29.28,East,80,5.4,5.4,57,0.00,,,0.00,288,TxWx,2013-08-30 23:16:00,
2013-08-30 18:21:00,80.9,64.0,29.28,NNE,14,7.5,7.5,57,0.00,,,0.00,278,TxWx,2013-08-30 23:21:00,
2013-08-30 18:26:00,81.0,64.0,29.28,NNE,32,7.2,7.5,57,0.00,,,0.00,264,TxWx,2013-08-30 23:26:00,
2013-08-30 18:31:00,81.3,64.0,29.28,NE,39,5.7,5.7,57,0.00,,,0.00,255,TxWx,2013-08-30 23:31:00,
2013-08-30 18:36:00,81.2,64.0,29.28,NNE,31,10.2,10.2,56,0.00,,,0.00,66,TxWx,2013-08-30 23:36:00,
2013-08-30 18:41:00,81.2,64.0,29.28,North,358,4.5,4.8,56,0.00,,,0.00,230,TxWx,2013-08-30 23:41:00,
2013-08-30 18:46:00,81.3,63.0,29.27,ENE,59,6.9,6.9,55,0.00,,,0.00,215,TxWx,2013-08-30 23:46:00,
2013-08-30 18:51:00,81.3,64.0,29.28,NE,34,2.7,2.7,56,0.00,,,0.00,205,TxWx,2013-08-30 23:51:00,
2013-08-30 18:56:00,80.9,64.0,29.28,NNE,12,8.1,8.4,57,0.00,,,0.00,139,TxWx,2013-08-30 23:56:00,
2013-08-30 19:01:00,80.6,64.0,29.28,North,5,7.5,7.5,57,0.00,,,0.00,167,TxWx,2013-08-31 00:01:00,
2013-08-30 19:06:00,80.7,65.0,29.28,NNE,26,4.8,5.1,58,0.00,,,0.00,158,TxWx,2013-08-31 00:06:00,
2013-08-30 19:11:00,80.6,65.0,29.28,NE,36,3.6,3.6,58,0.00,,,0.00,143,TxWx,2013-08-31 00:11:00,
2013-08-30 19:16:00,80.5,65.0,29.28,NNE,28,4.2,4.2,58,0.00,,,0.00,77,TxWx,2013-08-31 00:16:00,
2013-08-30 19:21:00,80.3,63.0,29.27,NNE,23,3.6,4.8,57,0.00,,,0.00,110,TxWx,2013-08-31 00:21:00,
2013-08-30 19:26:00,80.1,63.0,29.28,NE,51,3.6,4.2,57,0.00,,,0.00,91,TxWx,2013-08-31 00:26:00,
2013-08-30 19:31:00,80.0,64.0,29.28,NNE,20,4.2,4.2,58,0.00,,,0.00,72,TxWx,2013-08-31 00:31:00,
2013-08-30 19:36:00,79.6,65.0,29.28,NE,39,3.9,3.9,60,0.00,,,0.00,58,TxWx,2013-08-31 00:36:00,
2013-08-30 19:41:00,79.3,64.0,29.28,North,10,3.3,3.6,61,0.00,,,0.00,21,TxWx,2013-08-31 00:41:00,
2013-08-30 19:46:00,78.9,65.0,29.28,NE,41,2.4,3.0,62,0.00,,,0.00,16,TxWx,2013-08-31 00:46:00,
2013-08-30 19:51:00,78.7,64.0,29.28,ENE,60,3.0,3.6,61,0.00,,,0.00,11,TxWx,2013-08-31 00:51:00,
2013-08-30 19:56:00,78.6,64.0,29.28,NNE,14,2.7,2.7,61,0.00,,,0.00,8,TxWx,2013-08-31 00:56:00,
2013-08-30 20:01:00,78.3,63.0,29.28,NE,49,5.7,5.7,61,0.00,,,0.00,6,TxWx,2013-08-31 01:01:00,
2013-08-30 20:06:00,78.2,63.0,29.28,ENE,73,3.6,3.6,61,0.00,,,0.00,5,TxWx,2013-08-31 01:06:00,
2013-08-30 20:11:00,78.1,63.0,29.28,East,83,4.2,4.2,61,0.00,,,0.00,5,TxWx,2013-08-31 01:11:00,
2013-08-30 20:16:00,78.0,63.0,29.27,ENE,69,5.1,5.7,61,0.00,,,0.00,4,TxWx,2013-08-31 01:16:00,
2013-08-30 20:21:00,77.8,63.0,29.27,NE,50,4.8,4.8,61,0.00,,,0.00,4,TxWx,2013-08-31 01:21:00,
2013-08-30 20:26:00,77.7,63.0,29.28,East,80,6.0,6.0,61,0.00,,,0.00,4,TxWx,2013-08-31 01:26:00,
2013-08-30 20:31:00,77.6,63.0,29.28,ENE,73,6.0,6.0,61,0.00,,,0.00,4,TxWx,2013-08-31 01:31:00,
2013-08-30 20:36:00,77.5,63.0,29.28,East,91,5.4,5.4,61,0.00,,,0.00,4,TxWx,2013-08-31 01:36:00,
2013-08-30 20:41:00,77.5,63.0,29.28,East,84,5.1,5.1,61,0.00,,,0.00,4,TxWx,2013-08-31 01:41:00,
2013-08-30 20:46:00,77.5,62.0,29.28,East,81,5.1,5.1,61,0.00,,,0.00,4,TxWx,2013-08-31 01:46:00,
2013-08-30 20:51:00,77.4,62.0,29.29,ENE,73,3.6,3.6,61,0.00,,,0.00,4,TxWx,2013-08-31 01:51:00,
2013-08-30 20:56:00,77.3,62.0,29.29,ENE,62,2.1,2.4,61,0.00,,,0.00,4,TxWx,2013-08-31 01:56:00,
2013-08-30 21:01:00,77.2,63.0,29.29,East,80,1.5,1.5,62,0.00,,,0.00,4,TxWx,2013-08-31 02:01:00,
2013-08-30 21:06:00,76.9,63.0,29.29,NE,46,5.1,5.1,62,0.00,,,0.00,4,TxWx,2013-08-31 02:06:00,
2013-08-30 21:11:00,76.7,63.0,29.29,ENE,69,3.9,4.5,63,0.00,,,0.00,4,TxWx,2013-08-31 02:11:00,
2013-08-30 21:16:00,76.5,63.0,29.29,NE,55,6.0,6.0,63,0.00,,,0.00,4,TxWx,2013-08-31 02:16:00,
2013-08-30 21:21:00,76.5,63.0,29.29,ENE,77,6.9,6.9,63,0.00,,,0.00,4,TxWx,2013-08-31 02:21:00,
2013-08-30 21:26:00,76.6,63.0,29.29,East,81,8.7,8.7,62,0.00,,,0.00,4,TxWx,2013-08-31 02:26:00,
2013-08-30 21:31:00,76.5,62.0,29.29,East,91,8.1,8.4,62,0.00,,,0.00,4,TxWx,2013-08-31 02:31:00,
2013-08-30 21:36:00,76.3,62.0,29.29,East,80,5.7,5.7,63,0.00,,,0.00,4,TxWx,2013-08-31 02:36:00,
2013-08-30 21:41:00,76.0,62.0,29.29,ENE,69,6.0,6.3,63,0.00,,,0.00,4,TxWx,2013-08-31 02:41:00,
2013-08-30 21:46:00,75.8,62.0,29.29,ENE,77,5.7,5.7,63,0.00,,,0.00,4,TxWx,2013-08-31 02:46:00,
2013-08-30 21:51:00,75.6,63.0,29.29,East,88,6.9,6.9,64,0.00,,,0.00,4,TxWx,2013-08-31 02:51:00,
2013-08-30 21:56:00,75.4,62.0,29.29,ESE,104,6.9,8.7,64,0.00,,,0.00,4,TxWx,2013-08-31 02:56:00,
2013-08-30 22:01:00,75.3,62.0,29.29,East,100,8.7,8.7,64,0.00,,,0.00,4,TxWx,2013-08-31 03:01:00,
2013-08-30 22:06:00,75.1,62.0,29.28,East,94,11.1,11.1,65,0.00,,,0.00,4,TxWx,2013-08-31 03:06:00,
2013-08-30 22:11:00,74.9,62.0,29.28,ENE,68,6.0,6.9,65,0.00,,,0.00,4,TxWx,2013-08-31 03:11:00,
2013-08-30 22:16:00,74.9,62.0,29.29,East,79,7.5,7.5,65,0.00,,,0.00,4,TxWx,2013-08-31 03:16:00,
2013-08-30 22:21:00,74.7,63.0,29.28,East,79,8.1,9.3,66,0.00,,,0.00,4,TxWx,2013-08-31 03:21:00,
2013-08-30 22:26:00,74.4,62.0,29.28,East,87,6.9,7.2,66,0.00,,,0.00,4,TxWx,2013-08-31 03:26:00,
2013-08-30 22:31:00,74.2,62.0,29.28,East,84,7.2,7.2,67,0.00,,,0.00,4,TxWx,2013-08-31 03:31:00,
2013-08-30 22:36:00,74.0,62.0,29.28,East,90,12.9,12.9,67,0.00,,,0.00,4,TxWx,2013-08-31 03:36:00,
2013-08-30 22:41:00,74.0,62.0,29.28,East,94,7.8,10.2,67,0.00,,,0.00,4,TxWx,2013-08-31 03:41:00,
2013-08-30 22:46:00,74.0,62.0,29.27,ESE,105,13.5,13.5,67,0.00,,,0.00,4,TxWx,2013-08-31 03:46:00,
2013-08-30 22:51:00,74.0,62.0,29.28,ENE,78,9.3,10.8,67,0.00,,,0.00,4,TxWx,2013-08-31 03:51:00,
2013-08-30 22:56:00,74.0,62.0,29.28,East,82,10.8,10.8,67,0.00,,,0.00,4,TxWx,2013-08-31 03:56:00,
2013-08-30 23:01:00,73.8,63.0,29.28,East,79,9.0,9.6,68,0.00,,,0.00,4,TxWx,2013-08-31 04:01:00,
2013-08-30 23:02:00,73.8,63.0,29.28,ENE,75,10.5,11.1,68,0.00,,,0.00,4,TxWx,2013-08-31 04:02:00,
2013-08-30 23:07:00,73.5,63.0,29.28,ENE,73,5.1,6.6,68,0.00,,,0.00,4,TxWx,2013-08-31 04:07:00,
2013-08-30 23:12:00,73.3,62.0,29.28,ENE,76,4.5,4.5,69,0.00,,,0.00,4,TxWx,2013-08-31 04:12:00,
2013-08-30 23:17:00,73.1,62.0,29.28,East,87,11.7,13.2,69,0.00,,,0.00,4,TxWx,2013-08-31 04:17:00,
2013-08-30 23:22:00,73.0,62.0,29.28,East,95,9.3,9.3,70,0.00,,,0.00,4,TxWx,2013-08-31 04:22:00,
2013-08-30 23:27:00,72.8,63.0,29.29,ENE,74,6.3,6.3,70,0.00,,,0.00,4,TxWx,2013-08-31 04:27:00,
2013-08-30 23:32:00,72.6,63.0,29.29,ENE,78,3.9,4.2,71,0.00,,,0.00,4,TxWx,2013-08-31 04:32:00,
2013-08-30 23:37:00,72.5,62.0,29.29,East,88,5.7,6.0,71,0.00,,,0.00,4,TxWx,2013-08-31 04:37:00,
2013-08-30 23:42:00,72.3,62.0,29.29,East,93,6.9,7.8,72,0.00,,,0.00,4,TxWx,2013-08-31 04:42:00,
2013-08-30 23:47:00,72.2,62.0,29.29,ENE,73,5.4,5.7,72,0.00,,,0.00,4,TxWx,2013-08-31 04:47:00,
2013-08-30 23:52:00,72.1,63.0,29.29,East,88,8.1,8.1,73,0.00,,,0.00,4,TxWx,2013-08-31 04:52:00,
2013-08-30 23:57:00,71.9,63.0,29.29,East,96,5.7,5.7,73,0.00,,,0.00,4,TxWx,2013-08-31 04:57:00,